Regional Weather Roundup
Issued by NWS Charleston, WV

Home | Current Version | Previous Version | Graphics & Text | Print | Product List | Glossary On
Versions: 1 2 3 4 5 6 7 8 9 10 11 12 13 14 15 16 17 18 19 20 21 22 23 24 25 26 27 28 29 30 31 32 33 34 35 36 37 38 39 40 41 42 43 44 45 46 47 48 49 50
150
ASUS41 KRLX 200010
RWRRLX
West Virginia Regional Weather Roundup
National Weather Service Charleston WV
700 PM EST MON FEB 19 2018

Note: "fair" indicates few or no clouds below 12,000 feet with no
significant weather and/or obstructions to visibility.

WVZ003-200100-
Northern Panhandle of West Virginia

CITY           SKY/WX    TMP DP  RH WIND       PRES   REMARKS
WHEELING         N/A     64  54  69 S15G22    30.12R
$$

WVZ009-200100-
Northwest West Virginia

CITY           SKY/WX    TMP DP  RH WIND       PRES   REMARKS
PARKERSBURG      N/A     68  55  63 S8        30.16R
$$

WVZ006-200100-
Western West Virginia

CITY           SKY/WX    TMP DP  RH WIND       PRES   REMARKS
HUNTINGTON       N/A     70  52  52 S12G28    30.16R
$$

WVZ015-200100-
West Central West Virginia

CITY           SKY/WX    TMP DP  RH WIND       PRES   REMARKS
CHARLESTON     MOCLDY    70  54  56 S10       30.19R
$$

WVZ022-031-200100-
North Central West Virginia

CITY           SKY/WX    TMP DP  RH WIND       PRES   REMARKS
CLARKSBURG       N/A     67  53  61 S7        30.18R
MORGANTOWN       N/A     67  52  58 S7        30.18R
$$

WVZ025-035-042-045-200100-
Southern West Virginia

CITY           SKY/WX    TMP DP  RH WIND       PRES   REMARKS
BECKLEY        MOCLDY    58  51  78 SE7       30.27R
LOGAN          MOCLDY    68  54  60 VRB7G14   30.23R
BLUEFIELD        N/A     60  51  72 S7        30.29R
LEWISBURG        N/A     53  48  86 CALM      30.30R
$$

WVZ047-200100-
Northern Mountains of West Virginia

CITY           SKY/WX    TMP DP  RH WIND       PRES   REMARKS
ELKINS         MOCLDY    65  51  60 S5        30.25R
$$

WVZ052-200100-
Eastern Panhandle of West Virginia

CITY           SKY/WX    TMP DP  RH WIND       PRES   REMARKS
MARTINSBURG      N/A     50  45  83 E5        30.28R
PETERSBURG       N/A     60  49  66 S10       30.24R
$$




USA.gov is the U.S. government's official web portal to all federal, state and local government web resources and services.